PDT,Max TemperatureF,Mean TemperatureF,Min TemperatureF,Max Dew PointF,MeanDew PointF,Min DewpointF,Max Humidity, Mean Humidity, Min Humidity, Max Sea Level PressureIn, Mean Sea Level PressureIn, Min Sea Level PressureIn, Max VisibilityMiles, Mean VisibilityMiles, Min VisibilityMiles, Max Wind SpeedMPH, Mean Wind SpeedMPH, Max Gust SpeedMPH,PrecipitationIn, CloudCover, Events, WindDirDegrees
2013-5-1,86,72,58,22,14,7,22,14,6,30.17,30.12,30.08,10,10,10,35,16,44,0.00,1,,5
2013-5-2,89,77,64,46,22,9,14,11,8,30.22,30.13,30.03,10,10,10,16,7,21,0.00,0,,335
2013-5-3,95,73,50,44,35,25,71,40,9,30.06,29.93,29.79,10,10,9,23,5,28,0.00,0,,352
2013-5-4,88,80,71,33,28,23,22,17,11,29.86,29.71,29.56,10,10,10,30,17,39,0.00,0,,19
2013-5-5,76,68,59,52,42,32,69,46,22,29.80,29.66,29.54,10,10,10,23,9,28,0.03,2,Rain-Thunderstorm,94
2013-5-6,67,63,58,55,52,46,86,75,63,29.93,29.87,29.80,10,10,8,21,6,24,0.13,7,Rain,139
2013-5-7,69,63,56,55,53,51,93,74,55,30.01,29.97,29.92,10,10,9,9,1,13,0.01,8,Rain,96
2013-5-8,78,70,61,56,54,50,84,62,40,30.07,30.02,29.98,10,10,10,10,2,13,0.00,6,,241
2013-5-9,89,73,56,56,52,47,86,56,26,30.09,30.04,29.94,10,10,10,8,3,13,0.00,1,,351
2013-5-10,96,77,58,62,53,41,86,51,15,30.12,30.05,29.97,10,10,10,9,3,22,0.00,0,,174
2013-5-11,94,79,63,62,57,54,78,54,29,30.08,30.03,29.97,10,10,10,9,3,13,0.00,0,,246
2013-5-12,94,79,63,61,51,32,84,48,12,30.07,30.01,29.93,10,10,10,16,4,20,0.00,0,,228
2013-5-13,92,75,58,50,46,41,69,44,18,30.02,29.95,29.88,10,10,10,14,4,17,0.00,0,,252
2013-5-14,95,79,62,46,42,33,56,35,14,29.91,29.85,29.77,10,10,10,14,5,18,0.00,0,,315
2013-5-15,84,69,54,,,,,,,,,,,,,,,,0.00,,,-1
2013-5-16,76,70,64,,,,,,,,,,,,,,,,0.00,,,
2013-5-17,74,62,49,,,,,,,,,,,,,,,,0.00,,,
2013-5-18,83,66,48,46,40,36,80,50,20,30.10,30.07,30.01,10,10,10,16,3,24,0.00,1,,351
2013-5-19,85,73,60,37,36,34,42,29,16,30.19,30.14,30.03,10,10,10,20,13,29,0.00,0,,344
2013-5-20,91,74,57,39,33,23,37,23,8,30.08,29.90,29.82,10,10,10,20,7,24,0.00,0,,189
2013-5-21,74,67,59,39,28,23,40,28,16,30.00,29.87,29.80,10,10,10,24,8,32,0.00,0,,267
2013-5-22,73,60,46,32,23,11,42,26,10,30.04,29.94,29.82,10,10,2,17,9,30,0.00,0,,321
2013-5-23,76,65,53,34,31,23,46,31,15,29.94,29.90,29.85,10,10,10,16,8,21,0.00,0,,274
2013-5-24,79,62,45,38,34,25,71,43,14,29.96,29.91,29.85,10,10,10,15,2,18,0.00,0,,177
2013-5-25,81,64,47,47,38,32,66,42,18,29.96,29.91,29.85,10,10,8,16,3,21,0.00,1,,152
2013-5-26,79,69,58,47,42,37,60,43,26,30.01,29.97,29.92,10,10,10,18,6,24,0.00,2,,166
2013-5-27,66,61,56,55,52,39,86,63,40,30.04,29.97,29.91,10,9,2,17,6,21,0.11,8,Rain,205
2013-5-28,77,67,56,55,51,43,93,61,29,29.96,29.90,29.81,10,10,10,15,8,17,0.00,5,,170
2013-5-29,83,72,61,51,40,31,60,38,15,29.89,29.84,29.79,10,10,10,14,7,20,T,2,Rain,236
2013-5-30,86,69,52,43,34,21,66,38,10,29.97,29.91,29.86,10,10,10,13,5,21,0.00,0,,334
2013-5-31,94,79,63,40,35,30,43,28,12,30.04,29.97,29.88,10,10,10,18,8,25,0.00,0,,333